Sevilla, Spain

12:35 AM CEST on April 30, 2017 (GMT +0200)
San Pablo

Weather History for LEZL - March, 2014

Change the Weather History Date:

Saturday, March 8, 2014

  Actual Average Record
Temperature  
Mean Temperature 63 °F -  
Max Temperature 76 °F 70 °F 81 °F (2015)
Min Temperature 50 °F 48 °F 37 °F (2012)
Degree Days  
Heating Degree Days 2    
Growing Degree Days 13 (Base 50)    
Moisture  
Dew Point 36 °F    
Average Humidity 39    
Maximum Humidity 62    
Minimum Humidity 14    
Precipitation  
Precipitation 0.00 in - - ()
Sea Level Pressure  
Sea Level Pressure 30.07 in    
Wind  
Wind Speed 9 mph ()    
Max Wind Speed 17 mph    
Max Gust Speed -    
Visibility 16.9 miles    
Events      
Averages and records for this station are not official NWS values.
T = Trace of Precipitation, MM = Missing Value Source: Averaged Metar Reports

Daily Weather History Graph

Daily Weather History Graph

Search for Another Location

Airport or City:

Trip Planner

Search our weather history database for the weather conditions in past years. The results will help you decide how hot, cold, wet, or windy it might be!

Date:

Astronomy

Mar. 08, 2014 Rise Set
Actual Time 7:45 AM CET 7:24 PM CET
Civil Twilight 7:19 AM CET 7:50 PM CET
Nautical Twilight 6:48 AM CET 8:20 PM CET
Astronomical Twilight 6:18 AM CET 8:50 PM CET
Moon 12:22 PM CET (3/8) 2:02 AM CET (3/8)
Length of Visible Light 12h 31m
Length of Day
11h 38m
Waxing Crescent, 49% of the Moon is Illuminated
Mar 8
Waxing Crescent
Mar 8
First Quarter
Mar 16
Full
Mar 24
Last Quarter
Mar 30
New

Hourly Weather History & Observations

Time (CET) Temp. Dew Point Humidity Pressure Visibility Wind Dir Wind Speed Gust Speed Precip Events Conditions
12:00 AM 55.4 °F 41.0 °F 58% 30.15 in - East 10.4 mph - N/A   Clear
12:30 AM 55.4 °F 35.6 °F 47% 30.15 in - East 9.2 mph - N/A   Clear
1:00 AM 54 °F 36 °F 40% 30.15 in 12 mi ENE 4.6 mph - -  
1:00 AM 53.6 °F 37.4 °F 54% 30.12 in - East 3.5 mph - N/A   Clear
4:00 AM 51 °F 37 °F 49% 30.12 in 12 mi NE 8.1 mph - -  
4:30 AM 53.6 °F 35.6 °F 51% 30.09 in - ENE 11.5 mph - N/A   Clear
5:00 AM 53.6 °F 35.6 °F 51% 30.09 in - East 13.8 mph - N/A   Clear
5:30 AM 53.6 °F 33.8 °F 47% 30.09 in - East 16.1 mph - N/A   Clear
6:00 AM 53.6 °F 33.8 °F 47% 30.09 in - East 15.0 mph - N/A   Clear
6:30 AM 53.6 °F 32.0 °F 44% 30.09 in - ENE 15.0 mph - N/A   Clear
7:00 AM 54 °F 31 °F 29% 30.12 in 16 mi ENE 15.0 mph - -  
7:00 AM 53.6 °F 32.0 °F 44% 30.09 in - East 13.8 mph - N/A   Clear
7:30 AM 53.6 °F 30.2 °F 41% 30.09 in - East 15.0 mph - N/A   Clear
8:00 AM 53.6 °F 28.4 °F 38% 30.09 in - East 16.1 mph - N/A   Clear
8:30 AM 55.4 °F 30.2 °F 38% 30.09 in - East 17.3 mph - N/A   Clear
9:00 AM 55.4 °F 35.6 °F 47% 30.12 in - ENE 13.8 mph - N/A   Clear
9:30 AM 57.2 °F 39.2 °F 51% 30.12 in - ENE 11.5 mph - N/A   Clear
10:00 AM 59 °F 40 °F 37% 30.13 in 19 mi ENE 11.5 mph - -  
10:00 AM 57.2 °F 41.0 °F 55% 30.12 in - ENE 11.5 mph - N/A   Clear
10:30 AM 60.8 °F 39.2 °F 45% 30.12 in - ENE 11.5 mph - N/A   Clear
11:00 AM 62.6 °F 33.8 °F 34% 30.12 in - ENE 15.0 mph - N/A   Clear
11:30 AM 64.4 °F 33.8 °F 32% 30.12 in - East 15.0 mph - N/A   Clear
12:00 PM 66.2 °F 35.6 °F 32% 30.09 in - East 13.8 mph - N/A   Clear
12:30 PM 68.0 °F 33.8 °F 28% 30.09 in - East 8.1 mph - N/A   Clear
1:00 PM 71 °F 34 °F 16% 30.09 in 19 mi ENE 11.5 mph - -  
1:00 PM 69.8 °F 32.0 °F 25% 30.09 in - ENE 10.4 mph - N/A   Clear
1:30 PM 71.6 °F 32.0 °F 23% 30.06 in - ENE 8.1 mph - N/A   Clear
2:00 PM 71.6 °F 32.0 °F 23% 30.06 in - ENE 5.8 mph - N/A   Clear
2:30 PM 73.4 °F 33.8 °F 23% 30.04 in - East 8.1 mph - N/A   Clear
3:00 PM 75.2 °F 33.8 °F 22% 30.04 in - East 4.6 mph - N/A   Clear
3:30 PM 75.2 °F 35.6 °F 24% 30.01 in - ENE 9.2 mph - N/A   Clear
4:00 PM 76 °F 37 °F 14% 30.02 in 19 mi ENE 9.2 mph - -  
4:00 PM 75.2 °F 33.8 °F 22% 30.01 in - ENE 9.2 mph - N/A   Clear
4:30 PM 75.2 °F 35.6 °F 24% 30.01 in - NE 9.2 mph - N/A   Clear
5:00 PM 75.2 °F 35.6 °F 24% 30.01 in - East 9.2 mph - N/A   Clear
5:30 PM 75.2 °F 37.4 °F 25% 30.01 in - ENE 9.2 mph - N/A   Clear
6:00 PM 75.2 °F 37.4 °F 25% 30.01 in - ENE 9.2 mph - N/A   Clear
6:30 PM 73.4 °F 39.2 °F 29% 30.01 in - ENE 10.4 mph - N/A   Clear
7:00 PM 72 °F 42 °F 23% 30.01 in 19 mi ENE 6.9 mph - -  
7:00 PM 71.6 °F 41.0 °F 33% 30.01 in - ENE 6.9 mph - N/A   Clear
7:30 PM 68.0 °F 42.8 °F 40% 30.01 in - East 8.1 mph - N/A   Clear
8:00 PM 64.4 °F 41.0 °F 42% 30.01 in - East 8.1 mph - N/A   Clear
8:30 PM 60.8 °F 42.8 °F 52% 30.01 in - ESE 8.1 mph - N/A   Clear
9:00 PM 59.0 °F 42.8 °F 55% 30.01 in - ESE 2.3 mph - N/A   Clear
9:30 PM 57.2 °F 42.8 °F 59% 30.04 in - NE 3.5 mph - N/A   Clear
10:00 PM 55 °F 42 °F 52% 30.04 in 19 mi NE 5.8 mph - -  
10:00 PM 55.4 °F 41.0 °F 58% 30.04 in - NE 5.8 mph - N/A   Clear
10:30 PM 53.6 °F 39.2 °F 58% 30.04 in - NNE 5.8 mph - N/A   Clear
11:00 PM 51.8 °F 39.2 °F 62% 30.04 in - NNE 3.5 mph - N/A   Clear
11:30 PM 51.8 °F 37.4 °F 58% 30.04 in - NNE 6.9 mph - N/A   Clear